Change the Weather History Date:

Saturday, July 20, 2013

  Actual Average Record
Temperature  
Mean Temperature 84 °F -  
Max Temperature 96 °F 89 °F 98 °F (1996)
Min Temperature 71 °F 64 °F 53 °F (2007)
Cooling Degree Days 18    
Growing Degree Days 34 (Base 50)    
Moisture  
Dew Point 63 °F    
Average Humidity 46    
Maximum Humidity 69    
Minimum Humidity 34    
Precipitation  
Precipitation 0.00 in - - ()
Sea Level Pressure  
Sea Level Pressure 29.99 in    
Wind  
Wind Speed 5 mph ()    
Max Wind Speed 9 mph    
Max Gust Speed -    
Visibility 6.2 miles    
Events      
Averages and records for this station are not official NWS values.
T = Trace of Precipitation, MM = Missing Value Source: Averaged Metar Reports

Daily Weather History Graph

Daily Weather History Graph

Search for Another Location

Airport or City:

Trip Planner

Search our weather history database for the weather conditions in past years. The results will help you decide how hot, cold, wet, or windy it might be!

Date:

Astronomy

Jul. 20, 2013 Rise Set
Actual Time 7:01 AM CEST 9:40 PM CEST
Civil Twilight 6:30 AM CEST 10:12 PM CEST
Nautical Twilight 5:50 AM CEST 10:51 PM CEST
Astronomical Twilight 5:05 AM CEST 11:36 PM CEST
Moon 7:30 PM CEST (7/20) 4:27 AM CEST (7/20)
Length of Visible Light 15h 42m
Length of Day
14h 38m
Waxing Gibbous, 92% of the Moon is Illuminated
Jul 20
Waxing Gibbous
Jul 22
Full
Jul 29
Last Quarter
Aug 6
New
Aug 14
First Quarter

Hourly Weather History & Observations

Time (CEST) Temp. Heat Index Dew Point Humidity Pressure Visibility Wind Dir Wind Speed Gust Speed Precip Events Conditions
7:00 AM 71.6 °F - 59.0 °F 64% 30.01 in - East 3.5 mph - N/A   Clear
7:30 AM 71.6 °F - 59.0 °F 64% 30.01 in - East 6.9 mph - N/A   Clear
8:00 AM 71.6 °F - 60.8 °F 69% 30.01 in - East 5.8 mph - N/A   Clear
8:30 AM 73.4 °F - 60.8 °F 65% 30.01 in - ENE 5.8 mph - N/A   Clear
9:00 AM 75.2 °F - 60.8 °F 61% 30.04 in - East 8.1 mph - N/A   Clear
9:30 AM 77.0 °F - 62.6 °F 61% 30.04 in - East 6.9 mph - N/A   Clear
10:00 AM 77.0 °F - 62.6 °F 61% 30.04 in - East 6.9 mph - N/A   Clear
10:30 AM 80.6 °F 82.3 °F 64.4 °F 58% 30.04 in - East 6.9 mph - N/A   Clear
11:00 AM 80.6 °F 82.3 °F 64.4 °F 58% 30.04 in - East 3.5 mph - N/A   Clear
11:30 AM 82.4 °F 83.4 °F 62.6 °F 51% 30.04 in - East 4.6 mph - N/A   Clear
12:00 PM 84.2 °F 85.6 °F 64.4 °F 51% 30.04 in - Variable 3.5 mph - N/A   Clear
12:30 PM 84.2 °F 85.0 °F 62.6 °F 48% 30.01 in - Variable 3.5 mph - N/A   Clear
1:00 PM 86.0 °F 87.3 °F 64.4 °F 48% 30.01 in - Variable 2.3 mph - N/A   Clear
1:30 PM 87.8 °F 89.4 °F 64.4 °F 46% 30.01 in - Variable 2.3 mph - N/A   Clear
2:00 PM 91.4 °F 94.0 °F 66.2 °F 43% 30.01 in - Variable 2.3 mph - N/A   Clear
2:30 PM 93.2 °F 96.2 °F 66.2 °F 41% 29.98 in - Variable 1.2 mph - N/A   Clear
3:00 PM 93.2 °F 94.9 °F 64.4 °F 38% 29.98 in - SSW 6.9 mph - N/A   Clear
3:30 PM 93.2 °F 94.1 °F 62.6 °F 36% 29.98 in - Variable 5.8 mph - N/A   Clear
4:00 PM 95.0 °F 97.0 °F 64.4 °F 36% 29.98 in - WSW 5.8 mph - N/A   Clear
4:30 PM 95.0 °F 96.0 °F 62.6 °F 34% 29.98 in - South 8.1 mph - N/A   Clear
5:00 PM 96.8 °F 99.0 °F 64.4 °F 34% 29.95 in 6.2 mi South 9.2 mph - N/A   Partly Cloudy
5:30 PM 96.8 °F 99.0 °F 64.4 °F 34% 29.95 in 6.2 mi Variable 5.8 mph - N/A   Partly Cloudy
6:00 PM 91.4 °F 91.4 °F 60.8 °F 36% 29.95 in 6.2 mi SSW 6.9 mph - N/A   Partly Cloudy
6:30 PM 93.2 °F 94.1 °F 62.6 °F 36% 29.95 in 6.2 mi South 8.1 mph - N/A   Partly Cloudy
7:00 PM 95.0 °F 96.0 °F 62.6 °F 34% 29.92 in 6.2 mi SSW 9.2 mph - N/A   Partly Cloudy
7:30 PM 95.0 °F 96.0 °F 62.6 °F 34% 29.92 in 6.2 mi South 8.1 mph - N/A   Partly Cloudy
8:00 PM 93.2 °F 94.1 °F 62.6 °F 36% 29.92 in 6.2 mi SSW 5.8 mph - N/A   Partly Cloudy
8:30 PM 91.4 °F 91.4 °F 60.8 °F 36% 29.92 in 6.2 mi SSW 6.9 mph - N/A   Partly Cloudy
9:00 PM 89.6 °F 89.5 °F 60.8 °F 38% 29.92 in 6.2 mi WSW 3.5 mph - N/A   Partly Cloudy
9:30 PM 87.8 °F 87.1 °F 59.0 °F 38% 29.95 in - Variable 2.3 mph - N/A   Clear
10:00 PM 86.0 °F 85.4 °F 59.0 °F 40% 29.95 in - West 3.5 mph - N/A   Clear